Tracking 29892 objects as of 21-Nov-2024
HD Live streaming from Space Station
objects crossing your sky now

COSMOS 1275 DEB

Track COSMOS 1275 DEB now!
10-day predictions


NORAD ID: 12695
Int'l Code: 1981-053AP
Perigee: 917.9 km
Apogee: 1,075.1 km
Inclination: 83.0 °
Period: 104.9 minutes
Semi major axis: 7367 km
RCS: 0.0729 m2 (small)
Launch date: June 4, 1981
Source: Commonwealth of Independent States (former USSR) (CIS)
Launch site: PLESETSK MISSILE AND SPACE COMPLEX (PKMTR)

Note: This is SATELLITE DEBRIS
Your satellite tracking list
Your tracking list is empty




NASA's NSSDC Master Catalog

Two Line Element Set (TLE):
1 12695U 81053AP  24324.51337823  .00001751  00000-0  18109-2 0  9992
2 12695  83.0072 322.7491 0106692 194.3265 290.4154 13.72845845150162
Source of the keplerian elements: AFSPC